[[{"header":{"parameterUnit":"m.s-1","parameterCategory":2,"la1":30.2992,"la2":30.254,"lo1":-89.0895,"lo2":-89.0443,"dy":0.0025,"dx":0.0025,"nx":19,"ny":19,"refTime":"2026-03-26T21:00:00:Z","depth":"0","parameterNumber":2,"parameterNumberName":"U-component_of_CURRENTS"},"data":[0,0,0,0.19,0.1901,0.1894,0.1894,0.1881,0.1881,0,0,0,0,0,0,0,0,0,0,0,0.1904,0.1905,0.19,0.1901,0.1894,0.1894,0.1881,0.1881,0,0,0,0,0,0,0,0,0,0,0,0.1904,0.1905,0.1905,0.1901,0.1894,0.1894,0.1881,0.1883,0,0,0,0,0,0,0,0,0,0,0.1889,0.1896,0.1904,0.1905,0.1901,0.1894,0.1894,0.1883,0.1883,0.1889,0,0.1902,0,0.1899,0.1882,0.1882,0,0,0,0.1883,0.1896,0.1901,0.1905,0.1901,0.1894,0.1892,0.1883,0.1883,0.1889,0.1902,0.1902,0.1899,0.1882,0.1882,0.1938,0.1938,0,0,0.1884,0.1893,0.1901,0.1901,0.1919,0.1892,0.1892,0.1883,0.1887,0.1902,0.1901,0.1899,0.1882,0.1882,0.1937,0.1938,0,0,0,0.1897,0.1893,0.1897,0.1902,0.1906,0.1893,0.1892,0.1887,0.1891,0.1901,0.1899,0.1882,0.1882,0.1937,0.1938,0.1992,0,0,0,0.1896,0.1902,0.1898,0.1901,0.1906,0.1897,0.1897,0.1892,0.189,0.1899,0.1882,0.1882,0.1936,0.1937,0.1989,0.2024,0,0,0,0.1901,0.1902,0.1908,0.1902,0.1907,0.1897,0.1899,0.1891,0.189,0.1882,0.1882,0.1936,0.1937,0.1987,0.202,0.2079,0,0,0,0.1898,0.1929,0.1909,0.1942,0.1908,0.1927,0.1899,0.1904,0.1901,0.1882,0.1936,0.1937,0.1986,0.2017,0.2076,0.2099,0.2116,0,0,0.1937,0.1934,0.1953,0.1936,0.1966,0.1926,0.1958,0.1939,0.1923,0.1934,0.1936,0.199,0.202,0.2079,0.2172,0.2187,0,0,0,0.1965,0.1976,0.1983,0.1994,0.1998,0.2001,0.1978,0.1978,0.1987,0.1931,0.2001,0.2018,0.2054,0.2061,0.2073,0.2076,0.1943,0.1943,0.1943,0.201,0.2011,0.2036,0.2037,0.2053,0.2052,0.2064,0.2061,0.2033,0.2052,0.207,0.2163,0.2171,0.2181,0.2184,0.2072,0.2072,0.2073,0.2073,0.2044,0.2043,0.206,0.208,0.2092,0.2115,0.2142,0.2136,0.2185,0.2135,0.2167,0.2127,0.2197,0.2195,0.2076,0.2076,0.2075,0.2075,0.2075,0.2038,0.2036,0.2051,0.2077,0.2122,0.2149,0.221,0.224,0.2242,0.2279,0.2292,0.2291,0.2285,0.2298,0.2298,0.2299,0.2299,0.2299,0.23,0.2008,0.2025,0.2037,0.2076,0.2103,0.217,0.2259,0.2301,0.2367,0.237,0.237,0.2326,0.2232,0.2217,0.2306,0.2305,0.2304,0.2304,0.2303,0.1979,0.1984,0.2004,0.2026,0.2095,0.2141,0.2259,0.2385,0.2449,0.2488,0.2476,0.2418,0.2409,0.2398,0.2387,0.2515,0.2515,0.2515,0.2515,0.1953,0.1959,0.1973,0.1999,0.2052,0.2123,0.2199,0.2336,0.2492,0.2549,0.2566,0.251,0.2501,0.2492,0.248,0.2469,0.2614,0.2614,0.2614,0.1938,0.1945,0.1944,0.1965,0.2022,0.2077,0.212,0.2246,0.2498,0.2617,0.2572,0.2568,0.248,0.2466,0.2441,0.2423,0.24,0,0]},{"header":{"parameterUnit":"m.s-1","parameterCategory":2,"la1":30.2992,"la2":30.254,"lo1":-89.0895,"lo2":-89.0443,"dy":0.0025,"dx":0.0025,"nx":19,"ny":19,"refTime":"2026-03-26T21:00:00:Z","depth":"0","parameterNumber":3,"parameterNumberName":"V-component_of_CURRENTS"},"data":[0,0,0,-0.055,-0.0551,-0.0547,-0.0547,-0.0529,-0.0528,0,0,0,0,0,0,0,0,0,0,0,-0.0552,-0.0552,-0.055,-0.0551,-0.0547,-0.0547,-0.0529,-0.0528,0,0,0,0,0,0,0,0,0,0,0,-0.0552,-0.0552,-0.0553,-0.0551,-0.0547,-0.0547,-0.0529,-0.0533,0,0,0,0,0,0,0,0,0,0,-0.0537,-0.0539,-0.0552,-0.0553,-0.0551,-0.0547,-0.0547,-0.0533,-0.0532,-0.0529,0,-0.0536,0,-0.0535,-0.0528,-0.0528,0,0,0,-0.0542,-0.0539,-0.0545,-0.0553,-0.0551,-0.0547,-0.0546,-0.0533,-0.0532,-0.0528,-0.0536,-0.0535,-0.0535,-0.0528,-0.0528,-0.048,-0.048,0,0,-0.0542,-0.0542,-0.0546,-0.0545,-0.0559,-0.0546,-0.0546,-0.0532,-0.0531,-0.0535,-0.0535,-0.0535,-0.0528,-0.0528,-0.0481,-0.048,0,0,0,-0.0549,-0.0542,-0.0549,-0.0546,-0.0548,-0.0547,-0.0546,-0.0532,-0.0536,-0.0534,-0.0534,-0.0528,-0.0527,-0.0481,-0.0481,-0.043,0,0,0,-0.0548,-0.0547,-0.0549,-0.0547,-0.0549,-0.0541,-0.0546,-0.0537,-0.0536,-0.0535,-0.0528,-0.0527,-0.0482,-0.0481,-0.0432,-0.0394,0,0,0,-0.0551,-0.0547,-0.0551,-0.0548,-0.0551,-0.0541,-0.0544,-0.0537,-0.0536,-0.0528,-0.0527,-0.0482,-0.0481,-0.0434,-0.0398,-0.0353,0,0,0,-0.0544,-0.0539,-0.0551,-0.0541,-0.0551,-0.052,-0.0544,-0.0521,-0.051,-0.0527,-0.0482,-0.0481,-0.0435,-0.0401,-0.0356,-0.0321,-0.0305,0,0,-0.053,-0.0537,-0.053,-0.054,-0.0507,-0.0519,-0.047,-0.0473,-0.0494,-0.0485,-0.0484,-0.0431,-0.0399,-0.0354,-0.0262,-0.0247,0,0,0,-0.052,-0.0508,-0.0501,-0.0488,-0.0478,-0.0443,-0.0446,-0.0443,-0.0434,-0.0486,-0.0424,-0.0405,-0.0379,-0.0363,-0.0352,-0.0499,-0.0476,-0.0476,-0.0476,-0.0486,-0.048,-0.0446,-0.0429,-0.041,-0.0385,-0.0358,-0.0354,-0.0388,-0.0376,-0.0359,-0.0282,-0.0266,-0.0256,-0.0409,-0.0363,-0.0363,-0.0362,-0.0362,-0.0424,-0.0388,-0.0386,-0.0347,-0.0329,-0.0288,-0.0269,-0.028,-0.0249,-0.0298,-0.0276,-0.0305,-0.0241,-0.0408,-0.0359,-0.0359,-0.036,-0.036,-0.036,-0.0358,-0.034,-0.0323,-0.027,-0.0228,-0.0216,-0.0143,-0.0154,-0.019,-0.0167,-0.0158,-0.0159,-0.0308,-0.0162,-0.0161,-0.0161,-0.016,-0.016,-0.016,-0.0291,-0.0274,-0.022,-0.0182,-0.0147,-0.0096,-0.006,-0.0034,-0.0041,-0.0081,-0.0082,-0.0294,-0.022,-0.0232,-0.0154,-0.0155,-0.0156,-0.0156,-0.0157,-0.0204,-0.0191,-0.0109,-0.0066,0.0009,0.0093,0.0101,0.0139,0.0136,0.0136,-0.0164,-0.0038,-0.0046,-0.0056,-0.0064,0.0053,0.0053,0.0053,0.0053,-0.0142,-0.0133,-0.0014,0.0065,0.0152,0.0188,0.0294,0.0272,0.0078,-0.0064,-0.0162,-0.0235,-0.0237,-0.0263,-0.0268,-0.0283,-0.0224,-0.0225,-0.0225,-0.0088,-0.0056,0.0035,0.0111,0.0213,0.0295,0.0372,0.0311,-0.0021,-0.0256,-0.0374,-0.0362,-0.0493,-0.0484,-0.0546,-0.0542,-0.0573,0,0]}],[{"header":{"parameterUnit":"m.s-1","parameterCategory":2,"la1":30.2992,"la2":30.254,"lo1":-89.0895,"lo2":-89.0443,"dy":0.0025,"dx":0.0025,"nx":19,"ny":19,"refTime":"2026-03-26T21:00:00:Z","depth":"2","parameterNumber":2,"parameterNumberName":"U-component_of_CURRENTS"},"data":[0,0,0,0.1901,0.1901,0.1889,0.1889,0.1877,0.1877,0,0,0,0,0,0,0,0,0,0,0,0.1907,0.1908,0.1901,0.1901,0.1889,0.1889,0.1877,0.1877,0,0,0,0,0,0,0,0,0,0,0,0.1907,0.1908,0.1908,0.1901,0.1889,0.1889,0.1877,0.1881,0,0,0,0,0,0,0,0,0,0,0.189,0.1899,0.1907,0.1908,0.1901,0.1889,0.1889,0.1881,0.1881,0.1888,0,0.1901,0,0.1896,0.1878,0.1878,0,0,0,0.1884,0.1899,0.1903,0.1908,0.1901,0.189,0.189,0.1881,0.188,0.1888,0.1901,0.19,0.1896,0.1878,0.1878,0.1935,0.1936,0,0,0.1885,0.1895,0.1903,0.1903,0.1918,0.189,0.189,0.188,0.1885,0.1901,0.19,0.1896,0.1878,0.1878,0.1935,0.1935,0,0,0,0.1898,0.1895,0.1898,0.1904,0.1906,0.1891,0.189,0.1885,0.1889,0.19,0.1896,0.1878,0.1878,0.1934,0.1935,0.199,0,0,0,0.1898,0.1904,0.1899,0.1903,0.1906,0.1894,0.1895,0.1889,0.1888,0.1896,0.1878,0.1878,0.1934,0.1935,0.1987,0.2022,0,0,0,0.1904,0.1904,0.1911,0.1904,0.1906,0.1894,0.1896,0.1888,0.1886,0.1878,0.1878,0.1933,0.1934,0.1984,0.2018,0.2077,0,0,0,0.1903,0.1933,0.1911,0.1943,0.1907,0.1924,0.1896,0.1899,0.1896,0.1878,0.1934,0.1935,0.1984,0.2015,0.2074,0.2047,0.206,0,0,0.1941,0.1937,0.1956,0.1937,0.1964,0.1923,0.1954,0.1935,0.1919,0.1932,0.1934,0.1988,0.2017,0.2077,0.2121,0.2132,0,0,0,0.1968,0.1978,0.1984,0.1994,0.1995,0.1997,0.1973,0.1973,0.1984,0.1927,0.1999,0.2016,0.2052,0.2029,0.2038,0.1941,0.1941,0.1941,0.1941,0.2014,0.2013,0.2037,0.2037,0.205,0.2048,0.206,0.2057,0.2029,0.205,0.2068,0.2162,0.2138,0.2144,0.207,0.2071,0.2071,0.2071,0.2071,0.2048,0.2046,0.2063,0.208,0.2092,0.2114,0.214,0.2134,0.2183,0.2134,0.2166,0.2097,0.2157,0.2076,0.2075,0.2074,0.2074,0.2073,0.2073,0.2042,0.204,0.2055,0.208,0.2125,0.2149,0.221,0.224,0.2242,0.2278,0.2258,0.2256,0.2202,0.2297,0.2298,0.2298,0.2298,0.2299,0.2299,0.2012,0.2029,0.2042,0.208,0.2107,0.2173,0.226,0.2302,0.2346,0.2332,0.2331,0.2239,0.2232,0.2216,0.2306,0.2304,0.2304,0.2303,0.2302,0.1984,0.1989,0.2008,0.2031,0.2099,0.2077,0.224,0.2345,0.2421,0.2444,0.2362,0.2359,0.2344,0.2335,0.2322,0.2434,0.2434,0.2434,0.2434,0.1957,0.1963,0.1977,0.2003,0.2056,0.2037,0.1999,0.197,0.2103,0.2089,0.2102,0.2004,0.2009,0.1968,0.1967,0.1944,0.1957,0.1955,0.1954,0.1942,0.195,0.1948,0.1969,0.2025,0.1922,0.1717,0.1482,0.1616,0.192,0.1867,0.2432,0.2323,0.2317,0.228,0.2269,0.2242,0,0]},{"header":{"parameterUnit":"m.s-1","parameterCategory":2,"la1":30.2992,"la2":30.254,"lo1":-89.0895,"lo2":-89.0443,"dy":0.0025,"dx":0.0025,"nx":19,"ny":19,"refTime":"2026-03-26T21:00:00:Z","depth":"2","parameterNumber":3,"parameterNumberName":"V-component_of_CURRENTS"},"data":[0,0,0,-0.05,-0.05,-0.0487,-0.0487,-0.0468,-0.0467,0,0,0,0,0,0,0,0,0,0,0,-0.0508,-0.0508,-0.05,-0.05,-0.0487,-0.0487,-0.0468,-0.0467,0,0,0,0,0,0,0,0,0,0,0,-0.0508,-0.0508,-0.0508,-0.05,-0.0487,-0.0487,-0.0468,-0.0476,0,0,0,0,0,0,0,0,0,0,-0.0489,-0.0492,-0.0508,-0.0508,-0.05,-0.0487,-0.0487,-0.0477,-0.0476,-0.0475,0,-0.0481,0,-0.0476,-0.0467,-0.0467,0,0,0,-0.0493,-0.0493,-0.0497,-0.0508,-0.05,-0.0487,-0.0491,-0.0476,-0.0475,-0.0474,-0.0481,-0.048,-0.0476,-0.0467,-0.0467,-0.0423,-0.0422,0,0,-0.0494,-0.0495,-0.0498,-0.0497,-0.0507,-0.0491,-0.0491,-0.0476,-0.0474,-0.0481,-0.0479,-0.0476,-0.0467,-0.0467,-0.0423,-0.0423,0,0,0,-0.0501,-0.0496,-0.05,-0.0498,-0.0497,-0.0491,-0.049,-0.0475,-0.0479,-0.0479,-0.0475,-0.0467,-0.0466,-0.0424,-0.0423,-0.0373,0,0,0,-0.0501,-0.0501,-0.0501,-0.05,-0.0497,-0.0484,-0.049,-0.048,-0.0478,-0.0475,-0.0467,-0.0466,-0.0424,-0.0423,-0.0376,-0.0338,0,0,0,-0.0506,-0.0501,-0.0504,-0.05,-0.0498,-0.0485,-0.0487,-0.0479,-0.0476,-0.0467,-0.0466,-0.0424,-0.0423,-0.0378,-0.0342,-0.0298,0,0,0,-0.0501,-0.0496,-0.0504,-0.0491,-0.0499,-0.0462,-0.0487,-0.0461,-0.0449,-0.0467,-0.0424,-0.0423,-0.0378,-0.0345,-0.0301,-0.0235,-0.0217,0,0,-0.0488,-0.0494,-0.0484,-0.0492,-0.0453,-0.0463,-0.0411,-0.0414,-0.0435,-0.0429,-0.0428,-0.0375,-0.0343,-0.0298,-0.0179,-0.0162,0,0,0,-0.0474,-0.0463,-0.0453,-0.0436,-0.0421,-0.0385,-0.0386,-0.0384,-0.0377,-0.0426,-0.0369,-0.035,-0.0324,-0.029,-0.0276,-0.0418,-0.0419,-0.0419,-0.0419,-0.0444,-0.0434,-0.0398,-0.0377,-0.0356,-0.0326,-0.0299,-0.0297,-0.0332,-0.0322,-0.0306,-0.0231,-0.0194,-0.0184,-0.031,-0.031,-0.031,-0.031,-0.031,-0.0382,-0.0345,-0.0341,-0.0298,-0.0278,-0.0237,-0.0215,-0.0226,-0.0198,-0.0247,-0.0225,-0.0234,-0.0166,-0.0306,-0.0306,-0.0307,-0.0307,-0.0308,-0.0308,-0.0317,-0.0299,-0.0281,-0.0226,-0.0183,-0.0168,-0.0095,-0.0105,-0.0141,-0.0118,-0.0088,-0.0088,-0.0193,-0.0113,-0.0113,-0.0112,-0.0112,-0.0112,-0.0112,-0.0253,-0.0235,-0.018,-0.0142,-0.0106,-0.0053,-0.0015,0.0012,0.0019,-0.001,-0.001,-0.0164,-0.0171,-0.0181,-0.0106,-0.0107,-0.0108,-0.0108,-0.0109,-0.0166,-0.0154,-0.0071,-0.0028,0.0049,0.0207,0.0163,0.0213,0.0198,0.0207,0.0052,0.0047,0.0042,0.0031,0.0025,0.015,0.015,0.015,0.015,-0.0105,-0.0096,0.0023,0.0103,0.0191,0.0324,0.0525,0.0565,0.0453,0.0391,0.0381,0.0355,0.0339,0.0348,0.0329,0.0329,0.0533,0.0533,0.0534,-0.0051,-0.0019,0.0072,0.0149,0.0252,0.0503,0.0793,0.0864,0.0653,0.0553,0.048,0.0169,0.0099,0.0086,0.0069,0.0052,0.0038,0,0]}],[{"header":{"parameterUnit":"m.s-1","parameterCategory":2,"la1":30.2992,"la2":30.254,"lo1":-89.0895,"lo2":-89.0443,"dy":0.0025,"dx":0.0025,"nx":19,"ny":19,"refTime":"2026-03-26T21:00:00:Z","depth":"4","parameterNumber":2,"parameterNumberName":"U-component_of_CURRENTS"},"data":[0,0,0,0.0924,0.0926,0.1048,0.1049,0.1184,0.1185,0,0,0,0,0,0,0,0,0,0,0,0.0894,0.0895,0.0924,0.0926,0.1048,0.1049,0.1183,0.1185,0,0,0,0,0,0,0,0,0,0,0,0.0894,0.0895,0.0896,0.0927,0.1048,0.1049,0.1183,0.1101,0,0,0,0,0,0,0,0,0,0,0.0988,0.0964,0.0895,0.0896,0.0927,0.1047,0.1049,0.1098,0.1106,0.1117,0,0.1135,0,0.1149,0.1191,0.1192,0,0,0,0.0946,0.0957,0.0976,0.0896,0.0928,0.1047,0.0999,0.1103,0.1112,0.1128,0.1137,0.1142,0.1151,0.1192,0.1193,0.131,0.1311,0,0,0.0939,0.0931,0.0969,0.0982,0.0959,0.0994,0.1002,0.1109,0.1126,0.1138,0.1145,0.1154,0.1193,0.1193,0.131,0.1311,0,0,0,0.0907,0.0926,0.0944,0.0976,0.0993,0.0997,0.1006,0.1122,0.1124,0.1147,0.1155,0.1193,0.1195,0.1309,0.131,0.1347,0,0,0,0.0904,0.0906,0.0941,0.094,0.099,0.1063,0.1017,0.1118,0.113,0.1154,0.1193,0.1195,0.1309,0.131,0.1345,0.1358,0,0,0,0.0889,0.0904,0.0915,0.0939,0.098,0.1061,0.1072,0.1121,0.1133,0.1192,0.1196,0.1308,0.131,0.1343,0.1354,0.1407,0,0,0,0.0881,0.0895,0.0916,0.0944,0.0978,0.1046,0.1071,0.1147,0.12,0.1194,0.1309,0.131,0.1342,0.1353,0.1404,0.1189,0,0,0,0.0886,0.0896,0.0911,0.0931,0.0982,0.1031,0.1113,0.1196,0.1221,0.1274,0.1277,0.1345,0.1354,0.1406,0.1265,0,0,0,0,0.0904,0.092,0.0939,0.098,0.1027,0.1103,0.1178,0.122,0.1308,0.1253,0.1361,0.1366,0.1397,0.1265,0.1316,0.1316,0.1316,0.1316,0.1316,0.0903,0.093,0.0968,0.1017,0.1069,0.1169,0.1239,0.1312,0.1331,0.1381,0.1407,0.1486,0.1348,0.1421,0.1422,0.1422,0.1422,0.1422,0.1422,0.0919,0.0939,0.0997,0.1048,0.1123,0.1206,0.1316,0.1363,0.1469,0.1456,0.1485,0.1326,0.1426,0.1425,0.1425,0.1424,0.1424,0.1424,0.1424,0.092,0.0929,0.0982,0.1059,0.1151,0.1245,0.1339,0.1436,0.1504,0.1548,0.1431,0.1523,0.1507,0.1581,0.1581,0.1582,0.1582,0.1582,0.1582,0.089,0.0936,0.0985,0.1071,0.1124,0.1221,0.1373,0.1428,0.1521,0.1456,0.1577,0.154,0.1535,0.1518,0.1587,0.1586,0.1585,0.1585,0.1585,0.0866,0.0904,0.0957,0.101,0.1106,0.1154,0.1311,0.1357,0.1414,0.1396,0.1406,0.1413,0.1384,0.1383,0.1359,0.1384,0.1382,0.1379,0,0.0841,0.0865,0.0921,0.0968,0.101,0.1105,0.1115,0.119,0.1269,0.1226,0.143,0.1441,0.1444,0.141,0.1405,0.1376,0,0,0,0.082,0.0843,0.0856,0.0912,0.0948,0.0997,0.1107,0.109,0.1249,0.1219,0.1316,0.1333,0.1467,0.1601,0.1575,0.1569,0.154,0,0]},{"header":{"parameterUnit":"m.s-1","parameterCategory":2,"la1":30.2992,"la2":30.254,"lo1":-89.0895,"lo2":-89.0443,"dy":0.0025,"dx":0.0025,"nx":19,"ny":19,"refTime":"2026-03-26T21:00:00:Z","depth":"4","parameterNumber":3,"parameterNumberName":"V-component_of_CURRENTS"},"data":[0,0,0,0.0523,0.0523,0.0498,0.0498,0.0409,0.0408,0,0,0,0,0,0,0,0,0,0,0,0.0534,0.0534,0.0523,0.0523,0.0498,0.0498,0.0409,0.0408,0,0,0,0,0,0,0,0,0,0,0,0.0534,0.0534,0.0535,0.0523,0.0498,0.0498,0.0409,0.0437,0,0,0,0,0,0,0,0,0,0,0.0465,0.0489,0.0534,0.0535,0.0523,0.0499,0.0498,0.0438,0.0435,0.0411,0,0.0428,0,0.0424,0.0403,0.0403,0,0,0,0.05,0.0492,0.0493,0.0535,0.0523,0.0499,0.0503,0.0437,0.0433,0.0406,0.0426,0.0423,0.0422,0.0402,0.0402,0.0336,0.0336,0,0,0.0502,0.0514,0.0496,0.0491,0.0542,0.0504,0.0503,0.0435,0.0435,0.0426,0.0421,0.0421,0.0402,0.0401,0.0336,0.0336,0,0,0,0.0521,0.0515,0.0518,0.0495,0.05,0.0504,0.0502,0.0438,0.0443,0.042,0.042,0.0401,0.0401,0.0336,0.0336,0.0388,0,0,0,0.0521,0.0528,0.0519,0.0524,0.0502,0.0476,0.0507,0.0447,0.0439,0.042,0.0401,0.04,0.0336,0.0336,0.0387,0.0426,0,0,0,0.053,0.0528,0.0535,0.0525,0.0525,0.0477,0.0476,0.0445,0.044,0.0403,0.04,0.0336,0.0336,0.0386,0.0424,0.0417,0,0,0,0.0528,0.0556,0.0536,0.056,0.0526,0.0516,0.0477,0.0451,0.0422,0.0401,0.0336,0.0336,0.0386,0.0422,0.0416,0.0432,0,0,0,0.0562,0.056,0.0573,0.0555,0.0569,0.0516,0.0506,0.0451,0.0406,0.0351,0.0349,0.0387,0.0423,0.0417,0.041,0,0,0,0,0.0581,0.0592,0.0592,0.0596,0.0578,0.0554,0.0496,0.0461,0.0403,0.0393,0.0365,0.0386,0.0381,0.0385,0.0334,0.0334,0.0334,0.0334,0.0334,0.063,0.0621,0.064,0.0627,0.0619,0.0567,0.0536,0.0473,0.0426,0.0402,0.0412,0.0422,0.0428,0.0382,0.0382,0.0383,0.0383,0.0383,0.0383,0.0664,0.0671,0.0666,0.0683,0.0663,0.0652,0.0576,0.0532,0.0468,0.0433,0.0424,0.0419,0.0388,0.0387,0.0386,0.0386,0.0385,0.0385,0.0385,0.0672,0.0679,0.0694,0.0719,0.0741,0.071,0.07,0.0623,0.053,0.0515,0.0486,0.0449,0.0463,0.0497,0.0497,0.0498,0.0498,0.0498,0.0498,0.0678,0.0694,0.0725,0.0759,0.0798,0.0817,0.0767,0.072,0.062,0.0552,0.0526,0.0461,0.0457,0.0468,0.05,0.05,0.0499,0.0499,0.0499,0.0693,0.0706,0.075,0.0792,0.0868,0.0883,0.0858,0.0755,0.0694,0.0622,0.0553,0.055,0.053,0.0525,0.0538,0.0592,0.0592,0.0592,0,0.0708,0.0713,0.0781,0.0847,0.0899,0.0919,0.0864,0.0803,0.068,0.067,0.0674,0.0601,0.0596,0.0578,0.0573,0.0591,0,0,0,0.0728,0.0745,0.0796,0.0854,0.0921,0.0875,0.0847,0.0802,0.071,0.0658,0.0601,0.0599,0.0583,0.0507,0.0468,0.0464,0.048,0,0]}]]